Home > Time Zones > World Clock > Weather > Oman > Seeb > Past weeks

Flag for Oman Weather past 2 weeks in Seeb, Oman

Now
73 °F

Passing clouds.


Feels Like: 77 °F
Forecast: 67 / 74 °F
Wind: 9 mph from Northeast

Location: International Airport

Current Time: Jan 25, 2015 at 5:15:43 PM

Latest Report: Jan 25, 2015 at 4:50 PM


Visibility: N/A

Pressure: 30.15 "Hg

Humidity: 44%

Dew point: 50 °F

Location of SeebLocation

Historic Weather in Seeb — Graph

°F

Seeb temperature yesterday

Maximum temperature yesterday: 73 °F (at 10:50 AM)
Minimum temperature yesterday: 61 °F (at 6:50 AM)
Average temperature yesterday: 68 °F

Past Weeks' High & Low Weather Summary

 TemperatureHumidityPressure
High81 °F (Jan 19, 11:50 AM)94% (Jan 19, 8:50 PM)30.24 "Hg (Jan 19, 8:50 PM)
Low59 °F (Jan 20, 5:50 AM)31% (Jan 14, 11:50 AM)29.86 "Hg (Jan 19, 1:50 PM)
Average69 °F60%30.09 "Hg
* Reported Jan 10 3:50 PM — Jan 25 3:50 PM, Seeb, Weather by CustomWeather, © 2014

Note: Actual official high and low records may vary slightly from our data, if they occured in-between our weather recording intervals... More about our weather records

Advertising

Seeb weather history for previous 24 hours

 ConditionsComfort  
Time TempWeatherWind HumidityBarometerVisibility
3:50 PM
Jan 25
73 °FPassing clouds.9 mph50%30.15 "HgN/A
2:50 PM73 °FPassing clouds.9 mph50%30.15 "HgN/A
1:50 PM73 °FScattered clouds.9 mph44%30.15 "HgN/A
12:50 PM73 °FScattered clouds.8 mph47%30.18 "HgN/A
11:50 AM73 °FScattered clouds.8 mph57%30.21 "HgN/A
10:50 AM73 °FPartly sunny.6 mph57%30.21 "HgN/A
9:50 AM72 °FPartly sunny.3 mph61%30.24 "Hg6 mi
8:50 AM70 °FPartly sunny.5 mph60%30.21 "HgN/A
7:50 AM66 °FScattered clouds.6 mph68%30.21 "HgN/A
6:50 AM63 °FClear.7 mph77%30.18 "Hg6 mi
5:50 AM66 °FClear.9 mph68%30.15 "Hg10 mi
4:50 AM66 °FClear.7 mph64%30.12 "Hg10 mi
3:50 AM64 °FClear.No wind73%30.12 "Hg10 mi
2:50 AM66 °FClear.3 mph68%30.12 "Hg10 mi
1:50 AM66 °FPassing clouds.7 mph68%30.12 "HgN/A
12:50 AM66 °FClear.No wind68%30.12 "Hg10 mi
11:50 PM
Jan 24
66 °FClear.2 mph68%30.12 "Hg10 mi
10:50 PM66 °FClear.2 mph68%30.15 "Hg10 mi
9:50 PM68 °FPassing clouds.3 mph64%30.15 "HgN/A
8:50 PM68 °FPassing clouds.2 mph64%30.15 "HgN/A
7:50 PM70 °FPassing clouds.5 mph60%30.15 "HgN/A
6:50 PM70 °FPassing clouds.7 mph60%30.15 "HgN/A
5:50 PM72 °FPassing clouds.8 mph57%30.12 "HgN/A
Weather by CustomWeather, © 2014

See weather overviewHow to use our weather pages